Weather History for KBPC - November, 2011

Change the Weather History Date:

Thursday, November 3, 2011

  Actual Average (KBGD) Record (KBGD)
Temperature  
Mean Temperature 37 °F 54 °F  
Max Temperature 53 °F 67 °F 84 °F (2005)
Min Temperature 21 °F 41 °F 7 °F (1991)
Degree Days  
Heating Degree Days 28 12  
Month to date heating degree days 34  
Since 1 July heating degree days 255  
Cooling Degree Days 0 0  
Month to date cooling degree days 0  
Year to date cooling degree days 1835  
Moisture  
Dew Point 21 °F    
Average Humidity 59    
Maximum Humidity 93    
Minimum Humidity 22    
Precipitation  
Precipitation 0.00 in 0.04 in 0.53 in (1990)
Month to date precipitation 0.12  
Year to date precipitation 20.23  
Snow  
Snow 0.00 in - 0.50 in (1990)
Month to date snowfall  
Since 1 July snowfall  
Since 1 September snowfall  
Snow Depth -    
Sea Level Pressure  
Sea Level Pressure 30.38 in    
Wind  
Wind Speed 6 mph (West)    
Max Wind Speed 13 mph    
Max Gust Speed 16 mph    
Visibility 10 miles    
Events      
T = Trace of Precipitation, MM = Missing Value Source: NWS Daily Summary

Daily Weather History Graph

Daily Weather History Graph

Search for Another Location

Airport or City:

Trip Planner

Search our weather history database for the weather conditions in past years. The results will help you decide how hot, cold, wet, or windy it might be!

Date:

Astronomy

Nov. 03, 2011 Rise Set
Actual Time 8:08 AM CDT 6:46 PM CDT
Civil Twilight 7:41 AM CDT 7:13 PM CDT
Nautical Twilight 7:11 AM CDT 7:43 PM CDT
Astronomical Twilight 6:41 AM CDT 8:13 PM CDT
Moon 2:59 PM CDT (11/3) 1:35 AM CDT (11/3)
Length of Visible Light 11h 31m
Length of Day
10h 38m
First Quarter, 60% of the Moon is Illuminated
Nov 3
First Quarter
Nov 10
Full
Nov 18
Last Quarter
Nov 25
New
Dec 2
First Quarter

Hourly Weather History & Observations

Time (CDT) Temp. Windchill Dew Point Humidity Pressure Visibility Wind Dir Wind Speed Gust Speed Precip Events Conditions
12:15 AM 32.0 °F 25.6 °F 28.4 °F 87% 30.45 in 10.0 mi WNW 6.9 mph - N/A   Clear
12:55 AM 30.2 °F 24.3 °F 26.6 °F 86% 30.44 in 10.0 mi WNW 5.8 mph - N/A   Clear
1:15 AM 30.2 °F - 26.6 °F 86% 30.44 in 10.0 mi Calm Calm - N/A   Clear
1:35 AM 30.2 °F - 26.6 °F 86% 30.44 in 10.0 mi Calm Calm - N/A   Clear
1:55 AM 30.2 °F 22.6 °F 26.6 °F 86% 30.46 in 10.0 mi WSW 8.1 mph - N/A   Clear
2:15 AM 32.0 °F 24.8 °F 26.6 °F 80% 30.46 in 10.0 mi WNW 8.1 mph - N/A   Clear
2:35 AM 30.2 °F 23.4 °F 26.6 °F 86% 30.45 in 10.0 mi WNW 6.9 mph - N/A   Clear
2:55 AM 30.2 °F 24.3 °F 26.6 °F 86% 30.46 in 10.0 mi West 5.8 mph - N/A   Clear
3:15 AM 28.4 °F 22.2 °F 24.8 °F 86% 30.45 in 10.0 mi NW 5.8 mph - N/A   Clear
3:35 AM 28.4 °F 20.4 °F 24.8 °F 86% 30.45 in 10.0 mi WNW 8.1 mph - N/A   Clear
3:55 AM 28.4 °F 19.7 °F 24.8 °F 86% 30.45 in 10.0 mi NW 9.2 mph - N/A   Clear
4:15 AM 28.4 °F 19.7 °F 24.8 °F 86% 30.45 in 10.0 mi WNW 9.2 mph - N/A   Clear
4:35 AM 28.4 °F 23.3 °F 24.8 °F 86% 30.45 in 10.0 mi NW 4.6 mph - N/A   Clear
4:55 AM 28.4 °F 20.4 °F 23.0 °F 80% 30.44 in 10.0 mi NW 8.1 mph - N/A   Clear
5:15 AM 28.4 °F 20.4 °F 24.8 °F 86% 30.43 in 10.0 mi NNW 8.1 mph - N/A   Clear
5:35 AM 28.4 °F 22.2 °F 23.0 °F 80% 30.43 in 10.0 mi NW 5.8 mph - N/A   Clear
5:55 AM 23.0 °F 15.8 °F 21.2 °F 93% 30.44 in 10.0 mi West 5.8 mph - N/A   Clear
6:15 AM 23.0 °F 17.0 °F 21.2 °F 93% 30.44 in 10.0 mi West 4.6 mph - N/A   Clear
6:35 AM 23.0 °F 15.8 °F 21.2 °F 93% 30.44 in 10.0 mi WSW 5.8 mph - N/A   Clear
6:55 AM 23.0 °F 13.1 °F 21.2 °F 93% 30.44 in 10.0 mi WSW 9.2 mph - N/A   Clear
7:15 AM 23.0 °F 13.1 °F 21.2 °F 93% 30.44 in 10.0 mi WSW 9.2 mph - N/A   Clear
7:35 AM 23.0 °F 14.7 °F 19.4 °F 86% 30.44 in 10.0 mi WSW 6.9 mph - N/A   Clear
7:55 AM 21.2 °F 12.6 °F 19.4 °F 93% 30.43 in 10.0 mi West 6.9 mph - N/A   Clear
8:15 AM 23.0 °F 13.1 °F 19.4 °F 86% 30.43 in 10.0 mi WNW 9.2 mph - N/A   Clear
8:35 AM 23.0 °F 17.0 °F 21.2 °F 93% 30.43 in 10.0 mi WSW 4.6 mph - N/A   Clear
8:55 AM 26.6 °F - 21.2 °F 80% 30.44 in 10.0 mi Calm Calm - N/A   Clear
9:15 AM 30.2 °F 26.7 °F 24.8 °F 80% 30.44 in 10.0 mi West 3.5 mph - N/A   Clear
9:35 AM 32.0 °F 26.4 °F 24.8 °F 75% 30.44 in 10.0 mi WSW 5.8 mph - N/A   Clear
9:55 AM 32.0 °F 28.7 °F 24.8 °F 75% 30.45 in 10.0 mi WSW 3.5 mph - N/A   Clear
10:15 AM 33.8 °F 27.7 °F 24.8 °F 70% 30.45 in 10.0 mi SW 6.9 mph - N/A   Clear
10:35 AM 35.6 °F 32.8 °F 23.0 °F 60% 30.44 in 10.0 mi West 3.5 mph - N/A   Clear
10:55 AM 37.4 °F 32.8 °F 23.0 °F 56% 30.44 in 10.0 mi NW 5.8 mph - N/A   Clear
11:15 AM 41.0 °F 39.0 °F 21.2 °F 45% 30.44 in 10.0 mi NNW 3.5 mph - N/A   Clear
11:35 AM 41.0 °F 39.0 °F 19.4 °F 42% 30.43 in 10.0 mi North 3.5 mph - N/A   Clear
11:55 AM 42.8 °F - 19.4 °F 39% 30.43 in 10.0 mi Calm Calm - N/A   Clear
12:15 PM 44.6 °F 42.2 °F 15.8 °F 31% 30.42 in 10.0 mi West 4.6 mph - N/A   Clear
12:35 PM 46.4 °F 44.3 °F 15.8 °F 29% 30.41 in 10.0 mi NW 4.6 mph - N/A   Clear
12:55 PM 46.4 °F 43.5 °F 17.6 °F 32% 30.40 in 10.0 mi WNW 5.8 mph - N/A   Clear
1:15 PM 48.2 °F - 17.6 °F 30% 30.38 in 10.0 mi Calm Calm - N/A   Clear
1:35 PM 50.0 °F - 17.6 °F 28% 30.36 in 10.0 mi NW 6.9 mph - N/A   Clear
1:55 PM 51.8 °F - 17.6 °F 26% 30.35 in 10.0 mi WNW 5.8 mph 16.1 mph N/A   Clear
2:15 PM 51.8 °F - 17.6 °F 26% 30.33 in 10.0 mi West 3.5 mph - N/A   Clear
2:35 PM 50.0 °F - 17.6 °F 28% 30.32 in 10.0 mi WSW 4.6 mph - N/A   Clear
2:55 PM 51.8 °F - 17.6 °F 26% 30.31 in 10.0 mi Calm Calm - N/A   Clear
3:15 PM 51.8 °F - 17.6 °F 26% 30.30 in 10.0 mi SSE 4.6 mph - N/A   Clear
3:35 PM 53.6 °F - 17.6 °F 24% 30.30 in 10.0 mi WNW 5.8 mph - N/A   Clear
3:55 PM 53.6 °F - 17.6 °F 24% 30.29 in 10.0 mi North - - N/A   Clear
4:15 PM 53.6 °F - 15.8 °F 22% 30.28 in 10.0 mi North - - N/A   Clear
4:35 PM 53.6 °F - 15.8 °F 22% 30.27 in 10.0 mi North - - N/A   Clear
4:55 PM 53.6 °F - 17.6 °F 24% 30.27 in 10.0 mi SW 6.9 mph - N/A   Clear
5:15 PM 53.6 °F - 17.6 °F 24% 30.26 in 10.0 mi South 3.5 mph - N/A   Clear
5:35 PM 53.6 °F - 17.6 °F 24% 30.26 in 10.0 mi SSW 4.6 mph - N/A   Clear
5:55 PM 53.6 °F - 17.6 °F 24% 30.25 in 10.0 mi South 6.9 mph - N/A   Clear
6:35 PM 50.0 °F - 19.4 °F 30% 30.24 in 10.0 mi South 4.6 mph - N/A   Clear
6:55 PM 44.6 °F 40.7 °F 19.4 °F 37% 30.24 in 10.0 mi SE 6.9 mph - N/A   Clear
7:15 PM 42.8 °F 38.0 °F 17.6 °F 36% 30.23 in 10.0 mi SE 8.1 mph - N/A   Clear
7:35 PM 39.2 °F 33.0 °F 19.4 °F 45% 30.24 in 10.0 mi SE 9.2 mph - N/A   Clear
7:55 PM 39.2 °F 33.0 °F 19.4 °F 45% 30.23 in 10.0 mi SSE 9.2 mph - N/A   Clear
8:15 PM 41.0 °F 35.2 °F 21.2 °F 45% 30.24 in 10.0 mi SSE 9.2 mph - N/A   Clear
8:55 PM 39.2 °F 32.5 °F 21.2 °F 49% 30.23 in 10.0 mi SSE 10.4 mph - N/A   Clear
9:15 PM 41.0 °F 34.7 °F 21.2 °F 45% 30.23 in 10.0 mi SSE 10.4 mph - N/A   Clear
9:35 PM 41.0 °F 33.9 °F 21.2 °F 45% 30.22 in 10.0 mi SSE 12.7 mph - N/A   Clear
9:55 PM 41.0 °F 33.9 °F 19.4 °F 42% 30.22 in 10.0 mi SSE 12.7 mph - N/A   Clear
10:15 PM 39.2 °F 31.6 °F 19.4 °F 45% 30.22 in 10.0 mi SSE 12.7 mph - N/A   Clear
10:35 PM 39.2 °F 31.6 °F 19.4 °F 45% 30.22 in 10.0 mi SSE 12.7 mph - N/A   Clear
10:55 PM 37.4 °F 29.3 °F 21.2 °F 52% 30.22 in 10.0 mi SSE 12.7 mph - N/A   Clear
11:35 PM 37.4 °F 28.9 °F 21.2 °F 52% 30.20 in 10.0 mi SSE 13.8 mph - N/A   Clear
11:55 PM 37.4 °F 29.3 °F 21.2 °F 52% 30.20 in 10.0 mi SSE 12.7 mph - N/A   Clear